Theta_e
323 316 315 312 309 312 312 314 314 314 313 312 313 313 313 312 312 312 310 308 308 307
318 317 314 313 312 315 312 314 316 315 313 312 313 313 313 312 311 311 310 310 310 308
319 317 314 313 311 313 313 314 314 316 313 312 312 313 312 311 311 309 309 311 310 313
322 316 314 312 313 314 315 314 315 316 313 312 312 312 312 312 312 311 311 310 311 311
318 316 315 314 314 314 315 316 316 316 315 313 312 311 312 311 312 311 309 310 310 310
318 316 314 314 315 315 315 316 316 317 315 314 314 312 312 311 312 313 311 309 309 309
316 316 316 316 316 316 316 315 315 317 317 316 315 314 312 312 310 311 310 309 310 310
316 316 317 318 317 317 317 317 316 316 317 317 317 318 314 312 310 309 309 309 310 310
316 318 317 317 318 318 318 318 318 318 318 317 319 318 315 311 309 310 309 308 309 310
319 320 320 320 317 316 317 316 315 317 317 317 317 315 311 313 309 309 309 309 309 310
319 318 318 317 317 317 317 318 318 318 318 317 314 304 306 310 310 308 310 310 310 309
315 313 313 314 313 314 314 314 315 315 307 304 297 298 298 305 309 308 310 312 311 312
311 309 308 308 308 309 310 311 312 310 306 303 298 296 296 298 304 303 304 306 308 310
305 305 303 300 301 306 306 308 307 307 307 305 300 295 295 296 295 296 297 302 305 307
Wind_Speed
8 5 4 4 2 2 4 3 5 4 4 3 3 3 4 3 3 4 4 5 4 2
8 8 6 5 2 3 3 2 2 2 3 4 3 4 4 3 5 3 3 5 5 3
7 7 7 6 5 4 4 3 3 4 4 5 5 6 5 4 5 4 4 4 6 5
6 7 6 5 4 4 3 5 5 6 6 6 6 6 5 6 7 6 6 4 5 7
8 7 6 4 4 5 6 5 6 6 6 7 7 7 6 7 6 7 6 6 5 6
7 6 5 5 5 5 5 6 6 6 6 7 7 7 7 7 7 7 6 6 5 6
7 7 6 7 6 7 7 7 7 7 7 7 7 7 7 7 6 6 6 6 6 6
7 7 7 7 7 8 7 7 7 7 7 7 6 6 7 6 7 7 7 7 6 7
6 7 7 7 7 7 7 7 6 7 7 7 5 9 9 8 6 7 6 6 7 6
5 6 5 4 4 5 4 4 5 6 6 7 7 11 11 12 6 6 6 6 6 7
7 7 6 6 6 6 6 6 6 6 7 7 11 22 16 11 7 6 7 7 8 7
8 6 6 6 6 5 5 5 5 8 11 12 10 20 24 17 5 5 7 7 7 7
7 7 7 5 5 3 3 2 2 4 6 11 7 18 20 18 9 9 7 8 7 9
7 7 6 5 5 5 6 5 3 2 5 6 7 9 15 13 8 7 8 7 7 6
Wind_Direction
86 86 88 89 80 65 121 177 156 169 167 194 236 256 275 275 278 276 247 256 267 260
135 129 135 147 126 116 138 137 130 182 204 231 240 251 259 253 269 273 270 245 252 237
146 149 153 154 180 200 199 191 240 249 226 229 240 252 254 256 259 276 278 255 254 250
146 148 142 152 179 199 214 218 234 235 227 228 238 247 243 242 253 261 265 274 262 264
134 133 127 153 209 231 226 237 235 245 241 233 235 242 233 241 256 252 260 271 269 278
139 147 178 206 223 238 241 250 264 262 248 243 244 240 240 240 249 250 244 251 259 272
149 182 201 209 215 222 231 239 252 259 260 254 252 248 248 246 245 227 242 254 260 266
184 197 211 216 223 227 226 230 236 253 264 264 257 254 251 247 231 244 260 267 268 266
211 221 222 228 235 242 251 252 247 256 258 267 268 261 241 218 236 247 250 269 277 268
26 8 341 315 354 357 336 311 293 286 280 277 272 271 269 259 245 241 245 257 267 282
50 44 31 26 19 14 5 350 336 323 313 300 22 3 336 282 246 237 243 249 254 252
36 31 10 25 12 346 358 356 15 37 38 56 34 18 20 358 305 269 262 261 260 252
14 10 353 3 341 308 319 325 20 78 81 65 52 26 22 20 358 353 343 326 314 316
359 349 37 349 328 328 322 302 354 54 100 81 72 38 24 21 12 354 328 326 330 341